Temp
60 60 60 60 60 60 60 60 59 60 60 60 60 61 61 61 60 60 63 77 72 71 74 76 79 79 79 77 76 75 70 68 71 70 76 80 80 84 89 86 87 88 85 84 80
60 60 60 60 59 59 59 60 59 59 59 60 59 60 60 60 58 60 74 71 72 73 77 76 74 77 75 75 76 75 69 70 75 78 78 79 78 81 81 81 81 78 78 78 78
60 60 60 59 59 59 59 59 59 59 59 59 59 59 58 61 62 76 76 72 72 76 81 81 79 78 73 73 73 72 69 72 75 78 78 78 79 82 80 77 81 79 74 76 77
60 60 60 60 59 58 58 59 59 58 59 58 58 58 58 58 65 79 75 73 73 81 81 76 76 72 70 68 74 67 72 73 79 77 77 77 80 79 81 83 87 84 79 78 78
59 59 59 59 59 58 58 58 59 58 58 58 58 58 59 62 70 77 74 74 77 79 78 75 72 72 69 71 71 69 72 75 78 79 78 79 79 78 82 87 84 81 79 79 79
58 58 59 59 59 59 58 58 58 58 58 59 58 59 60 62 79 78 76 76 79 80 78 79 75 78 74 70 71 74 74 76 77 78 78 77 80 79 79 81 79 79 79 80 81
58 58 58 58 59 58 58 58 57 57 58 60 59 61 59 70 79 78 76 76 80 81 76 80 81 77 73 69 76 76 69 73 75 77 76 79 75 76 79 81 77 78 79 80 80
58 58 58 58 58 59 58 57 57 58 59 60 60 60 62 76 78 76 78 75 79 81 83 81 81 79 74 76 73 70 70 66 76 76 78 79 72 75 79 79 76 77 78 78 78
58 57 57 58 58 58 58 57 57 58 60 60 57 56 65 74 71 78 79 75 76 78 81 82 80 74 74 69 66 65 62 64 70 75 75 75 74 73 78 78 76 77 76 75 73
57 57 57 57 58 57 57 57 57 59 60 62 62 56 69 74 76 75 80 79 75 75 75 75 74 69 68 67 58 62 63 66 68 72 75 73 70 72 75 76 74 74 74 73 71
57 57 57 57 57 56 56 58 58 56 56 63 67 69 75 80 81 75 80 78 76 74 66 70 66 62 67 69 69 69 67 66 70 74 74 74 68 68 70 73 71 71 70 68 65
57 57 56 57 57 56 56 52 66 69 63 63 66 67 73 79 72 73 81 74 71 66 68 66 62 71 72 70 68 68 66 67 68 69 72 68 63 65 68 70 72 69 67 67 65
56 56 56 56 56 54 52 53 67 66 65 69 66 68 73 76 73 71 78 75 71 67 68 65 69 74 69 67 65 68 67 66 66 66 66 66 61 63 65 66 68 68 67 65 65
56 56 56 55 54 53 51 61 63 64 60 64 65 71 73 76 71 82 83 79 72 68 68 69 74 69 68 67 69 64 72 70 66 65 60 66 59 60 64 65 66 67 65 65 63
55 55 55 54 53 51 64 62 66 69 44 68 67 81 75 76 76 73 83 79 71 69 69 68 68 67 65 69 71 68 72 70 69 65 65 63 64 63 62 63 66 67 67 69 69
55 55 54 55 53 58 60 62 66 56 44 64 71 68 69 74 74 75 76 82 79 72 69 72 75 74 72 69 73 70 69 66 65 67 59 60 63 61 62 67 70 70 70 69 68
55 54 53 56 53 60 59 62 55 48 65 62 65 69 70 69 70 72 70 69 67 60 61 67 70 74 74 67 69 69 66 58 56 57 57 58 61 66 69 71 74 72 70 69 67
54 53 53 57 59 60 61 60 47 57 60 68 67 68 65 69 69 70 68 65 70 68 63 60 57 69 74 72 69 66 66 61 49 52 57 58 57 67 68 68 69 72 73 69 67
52 54 52 58 58 58 61 52 54 58 65 64 64 61 62 66 68 68 67 67 70 70 63 60 61 71 70 73 74 64 64 63 56 52 58 59 61 66 67 68 67 68 68 67 66
49 48 54 59 61 59 60 52 60 65 68 66 58 60 57 62 63 65 64 68 69 71 74 65 59 67 67 72 70 70 67 60 62 49 48 55 55 65 66 68 66 64 66 67 66
48 52 58 59 61 60 55 58 61 68 71 65 60 58 59 60 63 62 63 66 69 67 72 71 65 62 67 65 65 63 64 58 60 57 53 51 58 62 63 65 66 69 68 67 66
47 54 60 61 58 58 59 61 59 67 69 66 65 61 60 59 59 60 61 64 70 70 66 62 63 59 61 64 65 65 64 64 59 51 53 57 58 60 60 62 63 67 67 69 69
45 51 62 60 54 56 59 62 65 65 65 64 63 65 64 60 56 59 61 67 70 67 63 63 56 52 55 62 64 61 58 58 56 58 51 54 58 59 60 60 60 60 65 66 67
49 51 55 56 55 56 54 56 60 66 63 65 63 65 63 61 62 59 61 64 68 63 61 61 53 52 50 58 60 56 57 58 60 55 53 56 57 56 55 56 58 58 61 65 66
52 47 49 46 51 56 57 56 58 59 63 63 62 63 61 57 59 59 64 65 65 63 65 63 55 57 55 59 60 59 57 58 58 56 56 57 57 51 52 54 55 57 59 60 60
46 45 48 51 53 54 52 54 55 58 60 59 59 60 61 58 59 59 63 64 64 64 65 63 53 58 54 59 59 54 55 56 56 54 56 56 53 52 55 58 57 56 57 58 58
50 52 47 50 53 50 52 54 55 59 62 61 62 61 59 59 63 62 60 58 59 64 59 59 55 54 47 54 54 49 48 50 49 52 52 53 52 52 53 54 55 56 56 56 57
MSLP
1016.29 1015.92 1015.61 1015.35 1014.99 1014.69 1014.43 1014.33 1014.18 1014.01 1013.86 1013.74 1013.73 1013.56 1013.54 1013.56 1013.44 1013.27 1011.86 1009.16 1009.43 1009.75 1010.18 1010.69 1010.94 1011.02 1011.16 1011.14 1011.28 1011.15 1010.07 1008.67 1008.30 1008.23 1007.58 1007.76 1007.48 1007.46 1007.04 1006.92 1007.19 1007.77 1008.52 1009.24 1011.09
1016.21 1015.84 1015.46 1015.13 1014.79 1014.43 1014.24 1014.05 1013.93 1013.84 1013.74 1013.62 1013.62 1013.50 1013.46 1013.35 1013.04 1011.45 1008.29 1008.62 1009.00 1009.18 1009.61 1009.74 1010.28 1010.65 1010.77 1010.82 1010.91 1010.27 1009.32 1008.51 1008.37 1008.01 1007.64 1007.76 1007.69 1007.44 1007.28 1007.07 1007.53 1008.54 1009.79 1010.48 1011.36
1016.08 1015.70 1015.34 1014.97 1014.65 1014.37 1014.08 1013.90 1013.77 1013.64 1013.56 1013.48 1013.47 1013.44 1013.39 1013.14 1012.00 1007.96 1006.96 1007.96 1008.54 1008.69 1008.93 1009.21 1009.82 1010.02 1010.29 1010.63 1010.46 1009.88 1008.68 1008.83 1008.41 1008.25 1008.17 1007.86 1007.63 1007.56 1007.13 1006.88 1007.25 1007.52 1009.53 1010.73 1011.33
1016.04 1015.61 1015.20 1014.83 1014.50 1014.23 1013.92 1013.70 1013.56 1013.44 1013.36 1013.30 1013.38 1013.33 1013.20 1012.91 1010.13 1006.89 1006.50 1007.20 1008.16 1008.38 1008.73 1009.13 1009.67 1009.75 1009.78 1009.80 1009.83 1009.67 1009.10 1008.84 1008.26 1008.36 1008.17 1007.74 1007.77 1007.42 1006.91 1006.74 1007.26 1008.28 1008.93 1009.85 1010.88
1016.01 1015.57 1015.12 1014.70 1014.30 1014.01 1013.76 1013.48 1013.32 1013.26 1013.24 1013.24 1013.22 1013.18 1012.94 1011.66 1008.43 1007.11 1007.03 1007.48 1008.21 1008.21 1008.08 1008.27 1008.93 1009.24 1009.10 1009.34 1009.65 1009.36 1008.80 1008.41 1008.31 1008.06 1008.06 1007.98 1007.53 1007.56 1006.92 1006.91 1007.48 1008.36 1009.76 1009.91 1010.73
1016.00 1015.55 1015.04 1014.55 1014.07 1013.68 1013.46 1013.25 1013.08 1013.00 1012.97 1012.90 1012.99 1012.98 1012.31 1009.95 1006.90 1007.07 1007.27 1007.67 1007.47 1007.75 1008.07 1008.14 1008.45 1008.66 1008.89 1008.90 1008.84 1008.44 1008.22 1007.97 1007.87 1007.71 1007.83 1007.47 1007.14 1007.56 1007.18 1007.35 1007.88 1008.45 1009.41 1010.09 1010.67
1015.88 1015.36 1014.85 1014.35 1013.83 1013.39 1013.12 1012.99 1012.82 1012.78 1012.72 1012.65 1012.79 1012.58 1011.34 1007.77 1006.72 1007.09 1007.42 1007.64 1007.74 1007.46 1007.59 1008.03 1008.10 1008.37 1008.54 1008.39 1008.27 1008.04 1007.97 1007.77 1007.31 1007.23 1007.20 1007.12 1007.03 1006.75 1007.21 1007.63 1008.08 1008.95 1009.89 1010.43 1011.15
1015.59 1015.10 1014.60 1014.08 1013.56 1013.11 1012.81 1012.68 1012.59 1012.57 1012.53 1012.60 1012.70 1012.29 1009.39 1006.99 1006.98 1007.14 1007.38 1007.76 1008.12 1007.75 1007.75 1008.10 1008.16 1008.23 1008.22 1008.07 1008.09 1007.86 1007.78 1006.95 1005.98 1006.53 1006.65 1006.80 1006.26 1006.97 1007.35 1007.71 1008.36 1009.29 1010.04 1010.65 1011.59
1015.36 1014.86 1014.35 1013.84 1013.32 1012.81 1012.44 1012.22 1012.13 1012.23 1012.34 1012.52 1012.53 1011.70 1007.92 1006.73 1006.65 1006.20 1006.49 1006.87 1007.76 1007.90 1007.86 1007.97 1008.28 1008.24 1008.08 1007.68 1007.41 1007.29 1006.61 1006.38 1005.94 1006.36 1006.36 1006.74 1006.51 1007.46 1007.90 1008.22 1008.85 1009.59 1010.26 1011.31 1012.39
1015.09 1014.57 1014.10 1013.61 1013.12 1012.66 1012.26 1011.62 1011.67 1011.82 1012.13 1012.30 1011.74 1010.91 1006.89 1005.14 1005.11 1005.73 1006.28 1006.62 1007.09 1007.60 1007.73 1007.83 1007.89 1007.69 1007.63 1007.11 1006.17 1006.20 1006.11 1005.92 1005.67 1006.27 1006.31 1006.64 1007.17 1007.91 1008.31 1008.72 1009.45 1010.23 1011.07 1012.05 1012.96
1014.82 1014.27 1013.78 1013.31 1012.92 1012.63 1012.38 1011.97 1011.83 1011.45 1011.05 1008.57 1007.40 1006.27 1004.76 1004.47 1004.48 1005.36 1005.60 1006.14 1006.63 1006.97 1006.80 1007.26 1006.97 1006.38 1006.50 1006.62 1006.29 1005.94 1005.71 1005.56 1005.71 1006.07 1006.21 1006.55 1007.77 1008.71 1009.29 1009.49 1010.06 1010.90 1011.82 1012.67 1013.64
1014.44 1013.94 1013.43 1012.92 1012.57 1012.43 1012.45 1011.37 1008.51 1007.95 1007.57 1006.56 1006.47 1005.52 1004.57 1004.02 1004.20 1005.04 1005.28 1004.97 1005.77 1005.87 1006.36 1006.80 1006.01 1005.96 1006.18 1006.39 1006.23 1005.76 1005.45 1005.34 1006.02 1006.40 1006.52 1007.32 1008.46 1009.52 1009.95 1010.19 1010.64 1011.41 1012.07 1012.96 1014.01
1014.04 1013.53 1013.02 1012.38 1011.83 1011.75 1011.44 1009.85 1007.97 1007.72 1006.75 1004.96 1004.74 1004.10 1003.42 1003.70 1003.44 1004.19 1004.52 1004.35 1004.72 1005.19 1005.21 1005.13 1005.03 1005.25 1005.79 1005.93 1005.81 1005.30 1005.03 1005.16 1005.59 1006.60 1007.16 1007.45 1008.64 1009.47 1010.47 1010.99 1011.47 1012.13 1012.60 1013.29 1013.94
1013.60 1013.14 1012.68 1011.99 1011.71 1011.61 1010.23 1008.04 1008.07 1008.05 1006.29 1003.95 1003.32 1002.06 1002.47 1002.37 1002.66 1002.65 1003.23 1003.40 1003.99 1004.14 1004.79 1004.68 1004.55 1004.77 1005.09 1005.04 1005.07 1004.68 1004.64 1004.98 1005.44 1005.86 1006.22 1007.26 1007.52 1009.06 1009.86 1010.63 1011.28 1011.90 1012.55 1013.13 1014.02
1013.08 1012.67 1012.43 1012.40 1011.86 1010.91 1008.26 1007.94 1007.41 1007.20 1005.07 1002.29 1001.90 1001.33 1001.42 1001.25 1001.28 1002.54 1002.61 1002.69 1002.88 1003.50 1004.15 1003.61 1003.80 1004.10 1004.23 1003.98 1004.63 1004.38 1004.52 1004.84 1005.27 1005.61 1005.83 1006.77 1006.84 1007.95 1009.20 1009.60 1010.18 1010.93 1011.90 1012.66 1013.52
1012.37 1011.88 1011.80 1011.16 1010.93 1008.65 1008.32 1008.08 1007.39 1006.21 1003.38 1001.29 1000.80 1000.88 1001.17 1000.76 1000.96 1001.78 1002.14 1002.11 1002.57 1003.10 1003.58 1003.35 1003.48 1003.38 1003.30 1003.80 1003.99 1004.62 1004.84 1005.27 1005.71 1005.61 1005.45 1006.49 1006.75 1007.17 1007.74 1007.72 1008.62 1010.09 1011.28 1012.20 1013.33
1011.35 1010.63 1010.94 1010.47 1008.71 1007.79 1008.22 1007.97 1006.60 1004.34 1002.20 1000.95 1000.37 1000.30 1000.26 1000.35 1000.69 1000.83 1001.38 1001.84 1002.13 1002.74 1002.99 1003.22 1002.98 1003.00 1003.17 1003.59 1004.54 1004.26 1004.53 1004.93 1005.30 1005.26 1005.77 1006.87 1006.82 1006.32 1006.78 1007.46 1007.81 1008.73 1010.37 1011.90 1013.17
1010.15 1009.09 1007.91 1007.47 1007.55 1007.81 1007.51 1006.77 1004.51 1002.49 1001.47 1000.72 1000.38 1000.24 1000.28 1000.26 1000.47 1000.71 1001.11 1001.60 1002.20 1002.34 1002.51 1002.78 1002.78 1002.67 1002.80 1002.84 1003.36 1004.42 1004.62 1004.40 1004.83 1005.53 1006.12 1007.12 1006.53 1006.41 1007.27 1007.95 1008.52 1009.05 1010.07 1011.50 1012.77
1009.09 1007.78 1007.32 1006.37 1007.08 1007.61 1006.36 1004.75 1002.64 1001.64 1000.90 1000.60 1000.61 1000.37 1000.48 1000.45 1000.44 1000.81 1000.94 1001.19 1001.62 1002.10 1002.04 1002.36 1002.59 1002.86 1003.01 1003.07 1003.43 1004.67 1005.13 1006.02 1005.91 1007.25 1006.65 1006.96 1007.17 1007.19 1007.58 1007.92 1008.64 1009.17 1010.09 1011.17 1012.45
1008.80 1007.79 1006.40 1006.06 1006.43 1006.59 1005.09 1003.20 1001.98 1001.10 1000.55 1000.54 1000.72 1001.13 1000.87 1000.78 1000.78 1000.84 1001.21 1001.46 1001.48 1001.88 1002.07 1002.60 1002.75 1003.37 1003.91 1003.77 1004.37 1004.31 1005.38 1006.03 1006.05 1006.53 1006.70 1007.17 1007.42 1006.98 1007.65 1008.04 1008.93 1009.45 1009.98 1010.93 1012.25
1008.51 1007.16 1005.97 1006.05 1006.04 1005.29 1003.59 1002.59 1001.65 1000.88 1000.39 1000.65 1001.10 1001.49 1001.59 1001.31 1001.16 1001.28 1001.58 1001.98 1001.91 1002.25 1002.50 1002.72 1003.39 1004.14 1004.14 1004.21 1004.23 1005.30 1005.47 1006.42 1006.82 1007.00 1006.58 1007.23 1007.77 1008.76 1008.86 1009.04 1009.10 1009.44 1010.24 1011.03 1011.82
1008.24 1006.44 1006.16 1006.12 1005.20 1004.45 1003.18 1002.26 1001.32 1000.85 1000.76 1001.03 1001.33 1001.78 1001.94 1002.16 1002.02 1001.79 1002.02 1002.10 1002.23 1002.38 1002.92 1003.88 1003.94 1004.26 1004.68 1005.09 1005.18 1005.06 1005.32 1005.58 1006.10 1007.42 1007.93 1008.01 1008.77 1010.08 1010.39 1010.45 1010.33 1010.27 1010.60 1011.05 1011.73
1008.28 1006.72 1005.80 1005.63 1004.56 1004.07 1003.26 1002.28 1001.56 1001.11 1001.08 1001.37 1001.59 1001.91 1002.29 1002.54 1002.80 1002.81 1002.84 1003.07 1002.81 1003.01 1003.65 1004.11 1004.96 1005.26 1005.52 1005.84 1005.73 1005.72 1006.40 1006.66 1006.86 1007.10 1007.69 1008.13 1009.40 1010.84 1011.28 1011.47 1011.60 1011.43 1011.38 1011.51 1011.90
1008.22 1006.76 1005.91 1005.34 1005.29 1004.40 1003.79 1003.07 1002.09 1001.73 1001.64 1001.80 1001.97 1002.16 1002.37 1002.60 1002.81 1003.04 1003.31 1003.53 1003.37 1004.03 1004.09 1004.53 1005.42 1006.12 1006.09 1005.61 1005.63 1006.45 1006.95 1007.18 1006.91 1007.37 1008.16 1008.76 1009.89 1011.30 1012.22 1012.54 1012.75 1012.68 1012.37 1012.00 1012.21
1008.45 1008.81 1008.42 1006.94 1005.87 1005.19 1004.31 1003.82 1002.81 1002.46 1002.44 1002.54 1002.46 1002.44 1002.70 1003.13 1003.24 1003.31 1003.44 1003.84 1004.12 1004.49 1004.63 1005.25 1005.64 1005.91 1006.38 1006.70 1006.57 1006.88 1007.53 1007.88 1007.77 1008.19 1008.28 1009.21 1010.43 1012.39 1013.47 1013.73 1013.95 1013.97 1013.55 1013.16 1013.16
1009.99 1009.95 1008.91 1007.80 1006.46 1005.76 1005.26 1004.99 1004.01 1003.60 1003.20 1003.03 1003.00 1003.49 1003.51 1003.81 1003.93 1003.77 1003.74 1003.91 1003.87 1004.42 1004.69 1005.36 1006.29 1006.13 1007.20 1007.56 1007.53 1007.96 1008.85 1009.09 1009.24 1009.55 1009.76 1010.61 1012.03 1013.67 1014.38 1014.50 1014.54 1014.72 1014.47 1014.21 1014.18
1011.51 1010.82 1010.16 1008.91 1008.20 1007.39 1007.07 1006.08 1005.32 1004.40 1004.41 1004.30 1004.03 1004.07 1004.53 1005.03 1004.70 1004.69 1004.66 1004.79 1004.81 1004.79 1005.51 1005.99 1006.92 1007.60 1008.17 1008.73 1008.85 1009.58 1010.60 1010.75 1011.02 1011.41 1011.76 1012.08 1013.58 1014.58 1014.83 1014.92 1015.12 1015.24 1015.37 1015.29 1015.09
Wind_Speed
17 16 15 14 13 12 11 10 9 9 8 8 7 6 6 6 7 3 9 10 8 15 10 15 7 9 5 5 3 2 6 10 9 9 4 3 2 2 5 8 6 7 2 9 24
18 18 17 16 15 13 12 11 9 9 8 7 6 6 5 5 3 11 14 9 9 20 14 21 15 13 6 7 5 9 8 10 5 6 4 1 2 7 4 7 8 7 13 20 22
19 19 18 17 15 14 12 11 10 8 7 6 6 5 5 4 4 8 2 17 17 16 13 15 18 10 9 5 9 6 9 7 6 7 1 1 6 4 8 11 12 22 20 20 21
19 19 19 18 16 15 13 12 10 8 7 5 5 4 4 2 5 1 10 20 18 13 16 17 17 13 10 10 9 7 9 7 11 5 4 4 5 10 6 2 4 14 21 23 22
20 19 19 18 17 15 13 12 10 8 6 5 4 3 3 4 11 3 14 17 17 14 16 13 23 11 14 11 8 14 6 11 14 13 11 8 10 5 11 9 10 19 18 20 19
19 19 19 19 18 16 14 12 10 8 7 5 3 3 4 8 2 7 12 16 18 18 14 17 14 8 9 8 15 9 20 14 6 11 9 9 7 4 1 9 14 19 19 18 18
19 19 19 19 18 16 15 12 9 7 7 5 5 5 4 12 5 9 13 7 16 12 17 8 11 11 7 5 10 9 4 13 15 13 9 12 7 7 6 12 17 15 15 15 13
20 20 20 20 19 17 15 13 10 6 6 4 5 3 9 2 5 6 9 6 10 4 8 5 6 6 4 2 4 7 5 9 4 14 5 12 11 4 8 13 15 15 14 13 8
21 21 19 21 20 18 16 14 8 4 4 6 5 4 8 4 6 11 13 12 14 3 3 6 6 6 4 5 4 3 4 7 3 8 7 9 8 7 10 12 14 14 13 11 10
20 21 19 20 19 16 15 9 5 6 5 4 5 5 7 4 7 11 8 18 9 10 5 6 5 7 3 6 8 7 6 4 3 6 8 10 9 10 10 13 12 12 12 10 9
22 21 20 20 17 12 6 1 4 4 6 11 7 4 2 8 10 6 12 11 10 11 9 7 8 13 11 10 3 5 5 3 2 4 6 11 11 8 7 12 13 12 11 10 9
23 22 21 21 17 9 3 6 4 4 7 21 10 12 6 1 5 13 12 9 15 15 9 8 14 13 7 10 8 6 5 6 4 2 5 8 10 6 6 7 9 11 12 11 9
21 21 20 22 21 3 7 10 4 11 5 5 9 8 7 12 8 17 17 9 13 11 13 12 6 14 12 8 10 10 11 5 2 8 6 14 6 8 4 7 8 7 8 8 11
23 23 19 20 2 2 7 8 9 7 4 5 7 8 8 7 7 14 20 12 5 12 10 7 7 11 12 14 12 11 10 5 13 8 6 4 9 8 8 9 11 12 12 12 11
25 21 18 8 10 5 3 7 4 4 4 4 5 6 9 13 16 10 14 6 10 8 7 7 10 11 11 16 15 4 8 7 10 5 12 6 5 8 6 11 16 16 16 15 12
25 25 18 8 6 13 4 9 4 5 7 2 7 10 9 7 7 9 12 3 2 5 4 7 1 3 5 3 17 12 8 7 3 4 5 3 4 4 11 20 17 15 17 17 13
29 29 20 9 6 3 7 3 5 6 1 5 4 8 13 8 7 15 15 12 11 10 11 4 10 3 9 13 8 4 8 5 7 6 1 1 5 3 13 12 14 19 17 16 14
32 32 6 7 15 3 6 5 6 6 5 2 2 7 9 5 6 13 17 15 8 5 4 9 6 9 8 4 11 4 4 4 6 4 4 1 4 3 2 2 3 7 15 16 16
31 3 4 3 7 9 7 10 8 5 5 5 3 3 4 3 5 8 15 18 17 12 4 6 4 3 5 4 4 6 3 3 8 2 3 3 2 5 4 4 1 8 12 17 16
9 5 3 5 12 8 6 6 6 3 4 2 2 2 3 3 4 5 12 6 10 12 7 2 4 4 4 2 12 3 10 5 2 6 5 3 2 3 4 5 5 8 13 14 15
3 3 7 8 5 4 8 8 3 4 3 3 3 4 2 1 3 3 4 4 1 4 7 7 1 4 5 2 9 6 4 5 4 4 5 5 3 6 6 8 8 3 7 11 16
4 3 4 6 5 2 4 4 2 5 3 3 3 4 3 3 2 3 4 3 2 6 6 2 3 4 2 3 0 3 2 7 8 7 2 1 3 5 8 10 10 7 2 8 13
4 3 3 4 3 4 2 1 1 1 3 4 3 1 2 4 4 4 2 2 2 4 5 6 4 4 3 4 2 2 3 3 5 3 7 5 3 4 8 9 11 11 8 4 9
3 2 3 2 3 4 3 4 2 4 5 3 3 3 3 2 4 6 7 2 5 2 2 4 5 3 4 7 4 5 5 6 3 4 7 5 5 4 8 11 12 13 12 5 4
5 4 3 5 5 7 6 7 3 4 4 2 3 1 4 3 2 2 4 7 4 6 5 1 8 4 4 2 1 7 9 7 3 5 4 3 5 5 5 7 10 10 11 12 9
4 5 6 5 6 12 10 11 9 3 8 4 6 6 5 4 4 0 2 3 4 4 3 5 4 5 2 4 5 8 6 4 4 3 1 2 4 4 3 4 7 9 10 11 11
4 3 4 7 7 5 5 10 11 5 9 9 3 9 11 6 5 6 8 9 5 3 4 7 5 0 2 2 2 2 4 3 4 4 4 4 7 4 3 6 6 4 9 10 10
Wind_Direction
352 350 345 340 334 331 327 317 311 305 299 295 294 297 302 304 303 204 234 229 179 154 128 141 131 135 129 153 144 169 224 224 208 182 184 142 324 134 291 254 184 168 119 112 137
355 352 348 343 339 333 327 321 312 305 299 295 293 294 304 309 262 246 235 209 179 151 141 162 165 151 162 170 178 207 228 214 207 197 175 126 248 331 262 188 169 111 93 126 139
352 350 350 344 341 334 328 321 312 305 297 293 294 292 295 301 271 248 113 195 177 166 156 168 159 154 170 168 182 190 232 199 209 217 263 254 296 316 303 197 191 170 146 149 148
351 351 348 344 341 337 329 321 315 306 297 291 283 292 282 231 246 7 320 168 171 161 138 143 163 173 182 190 193 227 227 228 229 210 265 274 316 313 265 212 271 164 159 152 157
348 348 347 345 341 337 329 322 317 305 292 279 272 259 219 211 253 63 118 147 161 170 159 151 165 173 189 201 181 230 237 229 236 254 262 284 275 273 264 281 145 144 164 156 164
347 346 344 344 341 336 331 322 315 307 287 265 246 225 227 240 130 156 143 147 159 169 160 156 178 179 187 203 205 209 225 238 250 241 240 238 258 205 205 153 139 152 166 165 165
345 344 343 342 341 336 330 321 312 306 282 249 214 221 241 248 139 146 147 150 167 171 167 179 168 179 153 172 217 246 238 236 244 232 229 215 237 222 151 163 144 156 167 155 159
343 343 342 342 340 337 331 320 307 287 268 220 195 215 250 195 201 187 170 119 182 106 179 152 144 195 233 127 132 200 210 235 183 193 205 197 198 145 163 158 154 157 154 144 149
341 341 340 340 338 337 332 316 281 244 207 186 171 237 257 126 201 186 167 164 171 160 121 147 160 216 190 206 190 181 198 213 162 187 157 213 179 154 160 171 159 159 143 140 122
337 339 337 337 337 336 336 344 149 167 146 177 261 258 235 209 146 143 161 152 151 157 140 157 178 203 169 202 202 176 198 189 182 147 171 183 124 149 166 170 161 153 143 143 122
335 335 334 334 335 331 344 341 187 168 214 208 194 236 139 99 134 160 156 145 132 162 171 178 198 206 202 210 228 158 164 187 163 179 179 191 137 151 167 169 164 160 148 135 124
331 331 330 330 324 314 252 240 232 351 280 224 245 269 276 360 104 146 170 143 158 168 152 158 216 213 225 209 209 204 239 242 97 4 204 164 131 121 156 180 181 162 155 153 143
327 326 327 325 318 246 220 236 273 353 255 246 193 221 217 180 196 176 183 145 170 159 179 177 217 211 193 188 211 220 229 215 190 117 76 145 143 170 122 126 152 175 164 157 171
325 325 326 328 231 348 246 256 241 213 265 222 208 234 164 177 180 160 185 167 167 175 176 214 190 158 192 214 204 219 214 195 151 174 160 239 181 210 179 171 194 193 192 177 181
323 321 320 326 295 244 306 337 170 217 269 149 156 138 158 178 137 176 181 156 171 151 189 189 172 179 207 223 193 224 145 169 166 172 145 153 220 126 182 202 202 199 195 191 186
321 316 317 300 218 239 293 333 219 209 242 166 137 170 167 190 154 128 175 133 134 172 220 243 286 227 221 141 185 141 107 74 98 179 167 102 278 174 190 209 206 199 197 190 182
320 311 301 248 233 247 198 230 184 225 329 160 144 163 176 172 129 156 166 176 182 190 214 212 248 186 140 104 132 143 161 161 189 201 166 36 225 61 208 206 213 207 195 186 178
318 311 263 204 210 113 168 175 202 206 217 27 101 125 183 152 161 172 165 182 188 179 174 206 169 173 158 167 170 143 205 223 218 205 118 111 188 121 153 137 214 227 201 182 180
318 306 261 233 176 189 182 203 192 204 175 164 88 126 127 122 133 159 186 186 193 189 203 165 163 107 19 122 167 146 180 19 103 73 218 125 222 244 251 248 251 212 193 197 180
313 308 266 132 158 170 188 201 209 205 130 105 116 356 135 117 139 158 180 180 192 204 224 143 122 47 149 112 52 196 139 159 114 163 215 141 266 165 196 209 185 193 206 197 183
285 298 27 143 189 191 193 199 223 228 155 71 120 115 105 78 110 106 140 114 134 130 193 202 215 127 163 206 169 146 155 76 90 329 210 187 186 5 330 339 309 278 214 197 193
318 115 143 177 161 216 177 201 245 141 58 86 102 115 148 143 37 93 105 47 344 137 154 47 134 180 81 7 172 57 153 163 209 184 65 322 156 17 3 358 341 329 233 208 204
342 298 171 237 122 139 0 295 290 108 106 112 134 114 140 147 140 132 81 352 143 117 149 176 42 146 147 153 118 101 102 92 100 107 176 205 167 48 24 25 17 5 345 236 206
317 41 0 65 18 56 17 15 117 29 77 103 117 111 115 92 46 154 149 196 89 114 139 93 109 120 275 279 133 165 171 167 145 171 155 218 148 185 28 19 15 11 4 332 228
5 48 23 357 16 44 30 2 20 71 52 26 88 159 127 115 108 111 158 130 114 167 102 128 163 133 39 217 265 140 157 170 154 141 229 120 182 80 48 33 17 13 21 37 35
43 12 343 13 348 11 14 13 18 62 5 29 80 82 66 71 17 119 147 149 159 103 80 15 47 78 43 351 127 99 69 103 59 100 240 126 140 44 102 25 27 28 28 34 30
7 327 290 30 109 357 3 2 333 283 47 53 59 99 70 31 2 63 84 74 57 119 117 134 134 30 155 110 8 102 17 359 69 44 353 248 59 8 2 3 4 63 39 23 9